QPF
0.02 0.02 0.03 0.03 0.03 0.04 0.04 0.05 0.05 0.05 0.05 0.06 0.07 0.07 0.07 0.08 0.08 0.08 0.08 0.07 0.06 0.05 0.04 0.03 0.02 0.02 0.02 0.01 0.01 0.02 0.02 0.02 0.03 0.02 0.02 0.02 0.02 0.02 0.02 0.02 0.01 0.01 0.01
0.02 0.01 0.02 0.02 0.02 0.02 0.02 0.03 0.03 0.04 0.04 0.05 0.05 0.05 0.05 0.05 0.05 0.05 0.05 0.04 0.04 0.03 0.02 0.02 0.01 0.01 0.01 0.01 0.01 0.01 0.02 0.02 0.02 0.02 0.02 0.02 0.02 0.02 0.03 0.03 0.01 0.01 0.01
0.02 0.02 0.02 0.02 0.02 0.02 0.02 0.02 0.03 0.03 0.03 0.03 0.03 0.03 0.03 0.03 0.03 0.03 0.03 0.02 0.02 0.02 0.01 0.01 0.01 0.01 0.01 0.01 0.02 0.02 0.02 0.01 0.02 0.02 0.02 0.02 0.02 0.02 0.02 0.02 0.02 0.03 0.01
0.03 0.02 0.02 0.02 0.02 0.02 0.02 0.02 0.02 0.01 0.01 0.01 0.01 0.01 0.01 0.01 0.01 0.01 0.01 0.01 0.01 0.01 0.01 0.01 0.01 0.01 0.01 0.01 0.01 0.01 0.01 0.02 0.02 0.03 0.03 0.03 0.03 0.03 0.03 0.03 0.03 0.03 0.02
0.01 0.01 0.01 0.01 0.01 0.01 0.01 0.02 0.01 0.01 0.01 0.01 0.01 0.01 0.01 0.00 0.00 0.01 0.01 0.01 0.01 0.01 0.01 0.01 0.01 0.00 0.00 0.00 0.00 0.00 0.01 0.01 0.02 0.02 0.03 0.03 0.03 0.03 0.04 0.03 0.03 0.02 0.03
0.01 0.01 0.01 0.02 0.02 0.01 0.01 0.01 0.01 0.01 0.01 0.01 0.01 0.01 0.01 0.00 0.00 0.00 0.00 0.00 0.01 0.01 0.01 0.02 0.01 0.01 0.00 0.00 0.00 0.00 0.00 0.00 0.01 0.01 0.02 0.03 0.03 0.04 0.04 0.03 0.02 0.03 0.02
0.02 0.01 0.01 0.01 0.01 0.01 0.01 0.01 0.01 0.02 0.02 0.02 0.02 0.02 0.01 0.00 0.00 0.00 0.00 0.00 0.01 0.01 0.01 0.02 0.02 0.01 0.01 0.02 0.01 0.01 0.02 0.01 0.01 0.01 0.02 0.04 0.03 0.04 0.03 0.02 0.03 0.03 0.03
0.02 0.02 0.02 0.01 0.01 0.01 0.01 0.02 0.02 0.02 0.02 0.02 0.02 0.02 0.01 0.00 0.00 0.00 0.00 0.00 0.01 0.01 0.01 0.02 0.03 0.03 0.01 0.00 0.00 0.02 0.05 0.05 0.02 0.01 0.03 0.03 0.02 0.01 0.01 0.01 0.02 0.03 0.03
0.03 0.03 0.03 0.03 0.03 0.03 0.03 0.03 0.03 0.03 0.02 0.02 0.01 0.02 0.02 0.01 0.00 0.00 0.00 0.01 0.02 0.02 0.02 0.02 0.01 0.02 0.00 0.00 0.01 0.03 0.05 0.06 0.02 0.00 0.00 0.00 0.00 0.00 0.00 0.01 0.02 0.04 0.05
0.03 0.03 0.03 0.03 0.03 0.03 0.03 0.03 0.02 0.02 0.02 0.01 0.01 0.02 0.02 0.01 0.00 0.00 0.00 0.00 0.01 0.03 0.05 0.05 0.02 0.00 0.00 0.00 0.01 0.03 0.04 0.03 0.02 0.03 0.05 0.06 0.06 0.05 0.02 0.01 0.04 0.05 0.06
0.03 0.03 0.03 0.02 0.02 0.02 0.03 0.02 0.03 0.03 0.02 0.02 0.01 0.02 0.02 0.00 0.00 0.00 0.00 0.00 0.00 0.02 0.06 0.07 0.04 0.00 0.00 0.00 0.00 0.01 0.01 0.00 0.01 0.05 0.08 0.09 0.09 0.09 0.08 0.06 0.07 0.07 0.06
0.02 0.02 0.02 0.02 0.01 0.01 0.03 0.02 0.03 0.03 0.03 0.02 0.02 0.02 0.02 0.02 0.00 0.00 0.00 0.00 0.00 0.02 0.06 0.04 0.02 0.00 0.00 0.00 0.00 0.00 0.00 0.01 0.05 0.09 0.10 0.09 0.08 0.07 0.06 0.06 0.07 0.07 0.07
0.02 0.02 0.02 0.02 0.01 0.01 0.02 0.02 0.02 0.02 0.01 0.01 0.02 0.03 0.03 0.04 0.02 0.00 0.00 0.00 0.00 0.01 0.03 0.01 0.00 0.00 0.00 0.02 0.01 0.00 0.01 0.05 0.08 0.10 0.10 0.09 0.07 0.06 0.05 0.05 0.06 0.07 0.07
0.02 0.02 0.03 0.03 0.03 0.01 0.01 0.01 0.01 0.01 0.01 0.01 0.02 0.03 0.03 0.03 0.02 0.00 0.01 0.02 0.01 0.01 0.02 0.02 0.02 0.01 0.01 0.02 0.03 0.05 0.06 0.06 0.05 0.07 0.08 0.07 0.06 0.06 0.06 0.06 0.07 0.08 0.08
0.03 0.02 0.02 0.03 0.02 0.02 0.02 0.01 0.00 0.00 0.00 0.00 0.01 0.01 0.01 0.01 0.00 0.00 0.00 0.00 0.00 0.00 0.01 0.04 0.07 0.07 0.06 0.06 0.06 0.06 0.07 0.06 0.05 0.06 0.05 0.06 0.06 0.06 0.06 0.05 0.06 0.07 0.09
0.03 0.02 0.01 0.01 0.01 0.01 0.03 0.02 0.00 0.00 0.00 0.00 0.00 0.00 0.00 0.00 0.00 0.00 0.00 0.00 0.00 0.00 0.01 0.06 0.07 0.05 0.04 0.03 0.04 0.04 0.05 0.05 0.04 0.04 0.05 0.06 0.07 0.07 0.07 0.07 0.07 0.07 0.08
0.03 0.01 0.01 0.00 0.00 0.01 0.02 0.03 0.03 0.01 0.00 0.00 0.00 0.00 0.00 0.00 0.00 0.00 0.00 0.00 0.00 0.00 0.03 0.07 0.06 0.05 0.04 0.04 0.04 0.05 0.06 0.06 0.06 0.06 0.07 0.06 0.06 0.05 0.06 0.05 0.05 0.06 0.06
0.01 0.01 0.01 0.01 0.00 0.01 0.01 0.01 0.02 0.03 0.03 0.02 0.00 0.00 0.00 0.00 0.00 0.00 0.00 0.01 0.03 0.02 0.04 0.04 0.04 0.04 0.04 0.04 0.04 0.05 0.05 0.05 0.05 0.05 0.06 0.05 0.05 0.04 0.04 0.04 0.04 0.04 0.05
0.00 0.01 0.01 0.01 0.01 0.00 0.00 0.01 0.02 0.02 0.02 0.03 0.02 0.01 0.00 0.00 0.00 0.00 0.01 0.03 0.03 0.02 0.02 0.02 0.01 0.02 0.02 0.02 0.03 0.04 0.05 0.05 0.04 0.04 0.04 0.04 0.04 0.05 0.05 0.05 0.04 0.02 0.03
0.00 0.00 0.00 0.00 0.00 0.00 0.00 0.01 0.01 0.02 0.03 0.03 0.03 0.02 0.02 0.04 0.06 0.06 0.04 0.03 0.01 0.01 0.01 0.01 0.01 0.01 0.01 0.01 0.01 0.02 0.02 0.03 0.02 0.02 0.03 0.03 0.03 0.04 0.04 0.04 0.03 0.03 0.05
0.00 0.00 0.00 0.00 0.00 0.00 0.00 0.00 0.01 0.02 0.02 0.03 0.01 0.00 0.00 0.03 0.06 0.05 0.03 0.01 0.01 0.00 0.01 0.01 0.00 0.00 0.00 0.00 0.00 0.01 0.01 0.01 0.01 0.01 0.01 0.01 0.02 0.03 0.02 0.02 0.01 0.02 0.03
0.00 0.00 0.00 0.00 0.00 0.00 0.00 0.00 0.01 0.01 0.02 0.01 0.01 0.00 0.00 0.02 0.04 0.03 0.02 0.01 0.00 0.00 0.00 0.00 0.00 0.00 0.00 0.00 0.00 0.00 0.00 0.00 0.00 0.00 0.01 0.01 0.01 0.01 0.01 0.00 0.01 0.01 0.01
0.00 0.00 0.00 0.00 0.00 0.00 0.00 0.00 0.01 0.01 0.02 0.01 0.01 0.01 0.02 0.03 0.03 0.02 0.02 0.01 0.00 0.00 0.00 0.00 0.00 0.00 0.00 0.00 0.00 0.00 0.00 0.00 0.00 0.00 0.00 0.01 0.01 0.00 0.00 0.01 0.01 0.01 0.00
0.00 0.00 0.00 0.00 0.00 0.00 0.00 0.00 0.00 0.00 0.01 0.02 0.02 0.02 0.02 0.02 0.01 0.01 0.01 0.00 0.00 0.00 0.00 0.00 0.00 0.00 0.00 0.00 0.00 0.00 0.00 0.00 0.00 0.00 0.00 0.01 0.01 0.00 0.00 0.00 0.00 0.00 0.00
0.00 0.00 0.00 0.00 0.00 0.00 0.00 0.00 0.00 0.00 0.00 0.01 0.01 0.01 0.01 0.01 0.00 0.00 0.00 0.00 0.00 0.00 0.00 0.00 0.00 0.00 0.00 0.00 0.00 0.00 0.00 0.00 0.00 0.00 0.00 0.00 0.00 0.00 0.00 0.00 0.00 0.00 0.00
0.00 0.00 0.00 0.00 0.00 0.00 0.00 0.00 0.00 0.00 0.00 0.00 0.01 0.00 0.00 0.00 0.00 0.00 0.00 0.00 0.00 0.00 0.00 0.00 0.00 0.00 0.00 0.00 0.00 0.00 0.00 0.00 0.00 0.00 0.00 0.00 0.00 0.00 0.00 0.00 0.00 0.00 0.00
MSLP
1020.73 1020.95 1021.21 1021.48 1021.75 1021.99 1022.20 1022.37 1022.51 1022.62 1022.71 1022.78 1022.83 1022.85 1022.86 1022.84 1022.81 1022.77 1022.72 1022.68 1022.65 1022.62 1022.58 1022.52 1022.42 1022.28 1022.09 1021.83 1021.54 1021.21 1020.87 1020.54 1020.24 1019.97 1019.74 1019.55 1019.37 1019.20 1019.03 1018.84 1018.63 1018.41 1018.20
1021.66 1021.79 1021.95 1022.11 1022.27 1022.42 1022.56 1022.68 1022.80 1022.90 1023.00 1023.09 1023.17 1023.22 1023.25 1023.26 1023.24 1023.20 1023.14 1023.07 1022.99 1022.92 1022.83 1022.74 1022.62 1022.47 1022.28 1022.05 1021.80 1021.51 1021.21 1020.91 1020.61 1020.33 1020.06 1019.80 1019.54 1019.28 1019.00 1018.70 1018.39 1018.09 1017.80
1022.31 1022.37 1022.44 1022.53 1022.62 1022.72 1022.82 1022.94 1023.06 1023.19 1023.33 1023.47 1023.59 1023.69 1023.76 1023.79 1023.77 1023.72 1023.63 1023.52 1023.40 1023.27 1023.13 1022.99 1022.85 1022.69 1022.52 1022.33 1022.11 1021.87 1021.61 1021.34 1021.06 1020.77 1020.47 1020.15 1019.82 1019.47 1019.10 1018.71 1018.31 1017.92 1017.55
1022.70 1022.72 1022.76 1022.80 1022.86 1022.94 1023.05 1023.18 1023.34 1023.52 1023.72 1023.91 1024.09 1024.24 1024.34 1024.38 1024.36 1024.29 1024.17 1024.02 1023.84 1023.65 1023.47 1023.29 1023.12 1022.95 1022.79 1022.62 1022.44 1022.24 1022.02 1021.78 1021.51 1021.22 1020.89 1020.53 1020.14 1019.72 1019.27 1018.81 1018.35 1017.89 1017.46
1022.94 1022.95 1022.97 1023.01 1023.07 1023.16 1023.29 1023.46 1023.66 1023.89 1024.14 1024.39 1024.61 1024.79 1024.91 1024.96 1024.94 1024.85 1024.70 1024.50 1024.27 1024.03 1023.80 1023.59 1023.39 1023.22 1023.05 1022.90 1022.74 1022.57 1022.37 1022.14 1021.88 1021.57 1021.22 1020.83 1020.40 1019.94 1019.45 1018.95 1018.44 1017.94 1017.47
1023.10 1023.13 1023.17 1023.22 1023.30 1023.42 1023.57 1023.77 1024.01 1024.28 1024.56 1024.83 1025.08 1025.28 1025.41 1025.45 1025.42 1025.31 1025.13 1024.90 1024.64 1024.36 1024.10 1023.85 1023.64 1023.44 1023.27 1023.11 1022.95 1022.78 1022.59 1022.36 1022.08 1021.76 1021.39 1020.98 1020.53 1020.05 1019.54 1019.03 1018.51 1018.00 1017.52
1023.29 1023.36 1023.42 1023.51 1023.61 1023.74 1023.91 1024.12 1024.37 1024.64 1024.93 1025.20 1025.45 1025.64 1025.76 1025.79 1025.75 1025.62 1025.43 1025.18 1024.90 1024.60 1024.32 1024.05 1023.81 1023.60 1023.41 1023.23 1023.05 1022.86 1022.64 1022.39 1022.09 1021.75 1021.36 1020.93 1020.47 1019.99 1019.49 1018.99 1018.49 1018.00 1017.53
1023.56 1023.67 1023.77 1023.88 1023.99 1024.13 1024.30 1024.49 1024.72 1024.97 1025.22 1025.47 1025.68 1025.84 1025.94 1025.97 1025.91 1025.78 1025.58 1025.33 1025.04 1024.75 1024.46 1024.18 1023.92 1023.68 1023.46 1023.25 1023.03 1022.80 1022.54 1022.25 1021.92 1021.54 1021.14 1020.70 1020.24 1019.77 1019.29 1018.82 1018.35 1017.90 1017.45
1023.92 1024.07 1024.20 1024.32 1024.43 1024.56 1024.70 1024.86 1025.04 1025.24 1025.44 1025.64 1025.81 1025.93 1026.00 1026.01 1025.94 1025.81 1025.62 1025.38 1025.11 1024.82 1024.53 1024.24 1023.96 1023.70 1023.44 1023.18 1022.91 1022.63 1022.32 1021.98 1021.60 1021.20 1020.77 1020.32 1019.87 1019.41 1018.96 1018.52 1018.10 1017.68 1017.28
1024.34 1024.51 1024.65 1024.77 1024.88 1024.98 1025.08 1025.19 1025.32 1025.46 1025.61 1025.75 1025.87 1025.96 1026.01 1026.00 1025.93 1025.81 1025.63 1025.40 1025.15 1024.87 1024.57 1024.27 1023.97 1023.67 1023.37 1023.06 1022.74 1022.40 1022.03 1021.64 1021.22 1020.79 1020.34 1019.88 1019.43 1018.99 1018.56 1018.16 1017.77 1017.40 1017.04
1024.75 1024.93 1025.07 1025.19 1025.28 1025.35 1025.42 1025.49 1025.57 1025.67 1025.76 1025.86 1025.95 1026.01 1026.04 1026.02 1025.95 1025.83 1025.66 1025.45 1025.20 1024.92 1024.61 1024.29 1023.96 1023.62 1023.27 1022.91 1022.53 1022.14 1021.72 1021.29 1020.84 1020.38 1019.91 1019.45 1019.00 1018.56 1018.15 1017.77 1017.41 1017.07 1016.74
1025.08 1025.26 1025.40 1025.51 1025.59 1025.65 1025.70 1025.75 1025.80 1025.87 1025.94 1026.01 1026.08 1026.13 1026.15 1026.13 1026.06 1025.94 1025.77 1025.55 1025.29 1024.99 1024.66 1024.31 1023.94 1023.56 1023.16 1022.75 1022.32 1021.88 1021.43 1020.97 1020.49 1020.01 1019.54 1019.07 1018.61 1018.18 1017.78 1017.40 1017.06 1016.74 1016.45
1025.30 1025.47 1025.61 1025.72 1025.80 1025.86 1025.91 1025.96 1026.01 1026.08 1026.16 1026.23 1026.30 1026.35 1026.36 1026.33 1026.25 1026.12 1025.93 1025.69 1025.39 1025.06 1024.69 1024.30 1023.88 1023.45 1023.01 1022.56 1022.10 1021.64 1021.16 1020.69 1020.20 1019.72 1019.24 1018.76 1018.31 1017.87 1017.47 1017.09 1016.75 1016.45 1016.17
1025.39 1025.56 1025.70 1025.81 1025.90 1025.98 1026.05 1026.13 1026.22 1026.31 1026.41 1026.50 1026.58 1026.63 1026.64 1026.60 1026.50 1026.34 1026.11 1025.82 1025.48 1025.09 1024.67 1024.22 1023.76 1023.29 1022.82 1022.35 1021.87 1021.40 1020.93 1020.45 1019.97 1019.49 1019.02 1018.54 1018.09 1017.65 1017.23 1016.85 1016.50 1016.20 1015.93
1025.37 1025.53 1025.68 1025.81 1025.92 1026.03 1026.15 1026.27 1026.39 1026.53 1026.66 1026.78 1026.88 1026.93 1026.93 1026.86 1026.72 1026.51 1026.23 1025.88 1025.48 1025.03 1024.56 1024.07 1023.57 1023.08 1022.59 1022.12 1021.65 1021.19 1020.73 1020.27 1019.81 1019.35 1018.88 1018.41 1017.95 1017.50 1017.07 1016.68 1016.32 1016.00 1015.73
1025.29 1025.45 1025.60 1025.75 1025.89 1026.04 1026.19 1026.36 1026.53 1026.71 1026.87 1027.01 1027.12 1027.16 1027.13 1027.03 1026.84 1026.58 1026.23 1025.82 1025.36 1024.87 1024.35 1023.84 1023.33 1022.83 1022.36 1021.90 1021.46 1021.03 1020.60 1020.17 1019.74 1019.29 1018.83 1018.36 1017.90 1017.43 1016.99 1016.57 1016.20 1015.87 1015.59
1025.19 1025.35 1025.51 1025.67 1025.83 1026.01 1026.20 1026.40 1026.61 1026.81 1027.00 1027.15 1027.24 1027.26 1027.21 1027.06 1026.82 1026.49 1026.09 1025.63 1025.13 1024.61 1024.08 1023.57 1023.07 1022.61 1022.17 1021.76 1021.36 1020.98 1020.59 1020.19 1019.78 1019.34 1018.89 1018.42 1017.94 1017.46 1016.99 1016.55 1016.15 1015.80 1015.50
1025.11 1025.26 1025.41 1025.58 1025.75 1025.95 1026.16 1026.38 1026.61 1026.82 1027.01 1027.15 1027.22 1027.22 1027.12 1026.92 1026.63 1026.27 1025.83 1025.34 1024.83 1024.32 1023.81 1023.34 1022.89 1022.49 1022.11 1021.76 1021.43 1021.09 1020.74 1020.37 1019.97 1019.54 1019.08 1018.59 1018.08 1017.58 1017.08 1016.62 1016.19 1015.81 1015.48
1025.04 1025.17 1025.31 1025.47 1025.64 1025.84 1026.05 1026.28 1026.51 1026.72 1026.90 1027.02 1027.06 1027.02 1026.89 1026.66 1026.34 1025.95 1025.51 1025.03 1024.54 1024.07 1023.63 1023.23 1022.86 1022.54 1022.25 1021.97 1021.70 1021.41 1021.09 1020.73 1020.33 1019.88 1019.39 1018.87 1018.34 1017.80 1017.27 1016.77 1016.31 1015.90 1015.55
1024.95 1025.06 1025.18 1025.32 1025.48 1025.66 1025.87 1026.09 1026.31 1026.51 1026.67 1026.77 1026.79 1026.72 1026.57 1026.32 1026.00 1025.62 1025.20 1024.77 1024.34 1023.95 1023.60 1023.30 1023.03 1022.81 1022.61 1022.40 1022.19 1021.93 1021.63 1021.27 1020.84 1020.36 1019.83 1019.27 1018.68 1018.10 1017.54 1017.00 1016.51 1016.07 1015.69
1024.83 1024.90 1024.99 1025.10 1025.24 1025.41 1025.60 1025.81 1026.02 1026.21 1026.35 1026.44 1026.45 1026.38 1026.22 1025.98 1025.68 1025.34 1024.98 1024.62 1024.29 1024.00 1023.76 1023.56 1023.41 1023.29 1023.17 1023.03 1022.85 1022.62 1022.31 1021.92 1021.45 1020.92 1020.34 1019.72 1019.08 1018.46 1017.86 1017.29 1016.78 1016.31 1015.90
1024.63 1024.66 1024.71 1024.80 1024.91 1025.07 1025.26 1025.46 1025.66 1025.85 1025.99 1026.08 1026.10 1026.04 1025.90 1025.69 1025.44 1025.16 1024.88 1024.61 1024.38 1024.20 1024.08 1024.00 1023.95 1023.91 1023.86 1023.77 1023.61 1023.37 1023.04 1022.61 1022.09 1021.49 1020.84 1020.16 1019.48 1018.82 1018.18 1017.60 1017.07 1016.59 1016.16
1024.35 1024.34 1024.36 1024.42 1024.53 1024.67 1024.86 1025.06 1025.27 1025.46 1025.62 1025.73 1025.76 1025.73 1025.63 1025.48 1025.29 1025.09 1024.89 1024.72 1024.60 1024.53 1024.50 1024.52 1024.55 1024.58 1024.58 1024.51 1024.35 1024.08 1023.71 1023.23 1022.65 1021.99 1021.28 1020.54 1019.82 1019.12 1018.47 1017.88 1017.35 1016.87 1016.45
1024.02 1023.97 1023.97 1024.01 1024.11 1024.26 1024.45 1024.66 1024.88 1025.10 1025.27 1025.40 1025.47 1025.48 1025.43 1025.34 1025.22 1025.09 1024.98 1024.90 1024.86 1024.88 1024.94 1025.02 1025.12 1025.18 1025.20 1025.13 1024.96 1024.66 1024.24 1023.71 1023.07 1022.35 1021.59 1020.82 1020.06 1019.34 1018.69 1018.10 1017.59 1017.13 1016.73
1023.67 1023.60 1023.58 1023.62 1023.72 1023.87 1024.07 1024.30 1024.54 1024.77 1024.97 1025.13 1025.23 1025.28 1025.27 1025.24 1025.18 1025.11 1025.07 1025.06 1025.10 1025.18 1025.30 1025.43 1025.55 1025.64 1025.66 1025.58 1025.39 1025.06 1024.60 1024.02 1023.34 1022.58 1021.78 1020.98 1020.21 1019.49 1018.84 1018.27 1017.78 1017.36 1016.99
1023.35 1023.27 1023.25 1023.29 1023.40 1023.56 1023.77 1024.01 1024.25 1024.50 1024.71 1024.89 1025.02 1025.10 1025.13 1025.14 1025.13 1025.12 1025.13 1025.18 1025.27 1025.39 1025.54 1025.70 1025.84 1025.93 1025.95 1025.86 1025.64 1025.29 1024.80 1024.20 1023.49 1022.72 1021.90 1021.10 1020.32 1019.61 1018.97 1018.42 1017.96 1017.57 1017.23
Thickness
5622 5620 5618 5616 5613 5611 5609 5605 5603 5600 5598 5597 5595 5593 5590 5588 5586 5584 5582 5579 5576 5573 5569 5567 5564 5562 5559 5557 5554 5551 5548 5544 5539 5536 5533 5530 5526 5523 5520 5516 5514 5513 5511
5605 5603 5601 5599 5597 5595 5592 5590 5588 5586 5584 5583 5580 5578 5576 5574 5572 5570 5568 5565 5562 5558 5554 5552 5549 5548 5544 5541 5538 5535 5532 5529 5524 5520 5517 5515 5512 5510 5507 5503 5501 5500 5497
5591 5588 5586 5584 5582 5580 5578 5576 5574 5573 5571 5569 5566 5564 5562 5559 5557 5555 5553 5550 5547 5544 5541 5538 5535 5533 5529 5526 5523 5520 5517 5514 5510 5507 5504 5502 5499 5497 5494 5491 5489 5487 5485
5577 5575 5572 5570 5568 5566 5565 5563 5562 5560 5558 5556 5553 5550 5547 5544 5541 5539 5538 5536 5534 5531 5528 5526 5522 5518 5514 5511 5509 5505 5502 5499 5497 5495 5493 5491 5488 5486 5482 5479 5478 5476 5475
5565 5562 5559 5557 5556 5554 5553 5551 5549 5548 5546 5543 5540 5537 5534 5529 5524 5522 5522 5523 5521 5519 5517 5514 5511 5506 5501 5498 5495 5491 5489 5487 5485 5484 5482 5480 5478 5475 5471 5469 5467 5467 5467
5552 5550 5548 5546 5544 5542 5541 5539 5537 5536 5533 5531 5528 5525 5521 5515 5510 5509 5508 5508 5509 5508 5506 5503 5500 5496 5492 5489 5485 5482 5480 5478 5476 5473 5472 5470 5468 5466 5463 5461 5459 5458 5458
5541 5539 5537 5535 5533 5532 5531 5528 5526 5524 5522 5519 5517 5512 5507 5501 5499 5498 5497 5497 5498 5497 5495 5493 5490 5487 5483 5479 5478 5477 5475 5473 5470 5466 5464 5462 5461 5459 5457 5454 5453 5451 5451
5530 5529 5527 5525 5523 5521 5519 5517 5516 5514 5511 5509 5506 5502 5497 5492 5490 5489 5488 5490 5491 5489 5487 5485 5482 5478 5474 5470 5470 5470 5470 5469 5467 5463 5460 5458 5457 5455 5451 5449 5448 5448 5450
5522 5520 5518 5516 5514 5512 5510 5508 5506 5504 5502 5500 5496 5493 5489 5483 5481 5480 5479 5482 5483 5482 5480 5477 5474 5471 5465 5463 5463 5464 5464 5463 5462 5459 5457 5456 5454 5453 5449 5446 5446 5446 5446
5513 5511 5509 5507 5506 5504 5501 5500 5498 5496 5494 5492 5488 5485 5481 5477 5473 5472 5471 5475 5475 5474 5473 5471 5466 5463 5460 5458 5457 5457 5457 5456 5456 5456 5456 5455 5455 5453 5451 5447 5445 5443 5443
5505 5503 5502 5500 5498 5496 5494 5492 5490 5489 5486 5484 5482 5478 5475 5471 5468 5466 5465 5465 5465 5465 5466 5465 5462 5458 5456 5455 5453 5452 5452 5450 5451 5454 5455 5455 5455 5454 5452 5450 5447 5445 5443
5498 5496 5495 5493 5493 5490 5487 5485 5484 5482 5480 5478 5475 5473 5470 5466 5464 5462 5461 5459 5457 5458 5459 5459 5457 5455 5454 5453 5453 5453 5452 5450 5452 5454 5454 5454 5455 5454 5454 5453 5451 5449 5447
5492 5490 5489 5488 5485 5484 5482 5480 5478 5477 5475 5473 5470 5467 5464 5462 5460 5457 5456 5456 5455 5454 5454 5454 5454 5454 5454 5454 5455 5453 5452 5452 5453 5453 5453 5454 5455 5455 5455 5455 5454 5453 5452
5486 5485 5484 5482 5480 5477 5475 5473 5472 5469 5467 5466 5463 5460 5459 5458 5454 5451 5450 5452 5452 5452 5450 5452 5454 5456 5455 5454 5454 5454 5454 5454 5453 5453 5454 5455 5456 5456 5456 5456 5454 5453 5452
5482 5480 5479 5478 5476 5472 5468 5463 5462 5457 5455 5454 5454 5454 5452 5452 5445 5442 5442 5444 5444 5444 5444 5449 5453 5455 5456 5456 5455 5455 5455 5455 5454 5454 5454 5455 5456 5456 5456 5456 5455 5454 5452
5479 5478 5477 5476 5473 5470 5465 5460 5454 5452 5449 5448 5446 5444 5445 5443 5442 5442 5442 5443 5444 5443 5444 5449 5452 5453 5454 5453 5453 5453 5454 5454 5454 5454 5454 5454 5455 5455 5455 5456 5456 5455 5453
5477 5476 5475 5474 5471 5469 5465 5462 5456 5450 5447 5446 5444 5443 5442 5442 5442 5442 5442 5443 5446 5446 5447 5450 5451 5451 5451 5451 5451 5451 5451 5452 5452 5453 5453 5454 5455 5456 5456 5456 5456 5455 5455
5475 5473 5472 5471 5469 5467 5465 5463 5460 5457 5453 5450 5446 5444 5444 5443 5443 5443 5443 5443 5449 5451 5450 5450 5449 5449 5449 5449 5449 5449 5449 5450 5451 5451 5452 5452 5454 5455 5456 5457 5457 5456 5456
5475 5474 5472 5470 5469 5467 5464 5462 5460 5458 5455 5454 5451 5447 5445 5445 5444 5444 5444 5445 5448 5449 5448 5448 5448 5447 5447 5447 5447 5447 5447 5448 5448 5449 5450 5451 5453 5454 5455 5457 5458 5457 5457
5474 5470 5470 5470 5469 5467 5464 5462 5459 5457 5455 5453 5452 5450 5448 5447 5447 5448 5448 5448 5448 5447 5446 5445 5445 5445 5444 5444 5444 5445 5445 5445 5445 5445 5447 5449 5452 5454 5455 5456 5457 5458 5458
5478 5473 5468 5470 5469 5467 5464 5462 5459 5457 5455 5454 5452 5449 5445 5448 5448 5448 5448 5447 5446 5445 5443 5442 5443 5443 5442 5441 5441 5442 5442 5441 5441 5441 5443 5446 5450 5453 5455 5457 5458 5458 5458
5480 5478 5475 5474 5471 5468 5465 5462 5460 5458 5456 5455 5453 5451 5447 5448 5449 5448 5447 5446 5444 5443 5441 5440 5440 5440 5438 5438 5438 5438 5437 5436 5436 5437 5439 5444 5449 5453 5456 5457 5458 5459 5459
5481 5481 5479 5475 5472 5465 5465 5464 5461 5459 5457 5456 5455 5453 5452 5450 5450 5448 5446 5445 5444 5442 5440 5439 5438 5437 5435 5435 5434 5433 5431 5430 5430 5433 5436 5441 5447 5452 5456 5457 5459 5459 5460
5485 5484 5481 5478 5474 5471 5468 5465 5463 5461 5459 5457 5455 5454 5453 5451 5450 5448 5447 5445 5444 5442 5440 5438 5437 5435 5433 5432 5431 5430 5428 5428 5430 5433 5437 5441 5447 5453 5456 5458 5460 5461 5461
5487 5486 5484 5481 5477 5474 5470 5468 5465 5463 5461 5459 5458 5456 5455 5454 5452 5450 5448 5446 5445 5442 5440 5438 5436 5434 5432 5431 5429 5429 5430 5432 5434 5436 5440 5445 5450 5454 5456 5459 5460 5462 5462
5491 5489 5487 5484 5480 5476 5473 5470 5468 5465 5464 5462 5460 5458 5457 5456 5454 5451 5449 5446 5445 5443 5441 5439 5436 5434 5431 5430 5430 5431 5433 5436 5439 5443 5445 5448 5453 5456 5457 5460 5462 5464 5464